Back to catalog

STARLINK-5626

AliveCommunicationsVLEO
NORAD 55435·PAYLOAD·🇺🇸 United States

Launched Jan 31, 2023 from Vandenberg Space Force Base

Loading…

Next Passes (next 24 hours)

TLE

FreshSource: CelesTrak SupGP

Epoch: Sep 14, 2026, 21:03 UTC

1 55435C 23014AW  26257.87756944 -.00050193  00000+0 -42087-2 0  2573
2 55435  70.0016 347.4200 0003535 272.4085 241.6262 14.98333252    16

Track STARLINK-5626 in real time with AllMySat

Download on the App Store